Location: Piotrkow Trybunalski
(51.4000°N, 19.6830°E)
Time: 09:53:13
(UTC+02:00)

A-11 Canister half - Pass Details

Date: 31 May 2024
Orbit: 1524 x 1684 km, 47.3° (Epoch: 18 May)

Event Time Altitude Azimuth Distance (km) Brightness Sun altitude
Rises 02:12:17 0° 287° (WNW) 4,747 11.5 -13.8°
Reaches altitude 10° 02:15:47 10° 277° (W) 3,783 10.9 -13.6°
Maximum altitude 02:23:40 30° 222° (SW) 2,590 9.7 -13.1°
Drops below altitude 10° 02:31:45 10° 166° (SSE) 3,877 10.7 -12.6°
Sets 02:35:25 0° 156° (SSE) 4,882 11.3 -12.3°
